SCP
0 0 0 0 0 0 0 0 0 0 0 0 0 0 0 0 0 0 0 0 0 0 0 0 0 0 0 0 0 0 0 0 0 0 0 0 0 0 0 0 0 0 0
0 0 0 0 0 0 0 0 0 0 0 0 0 0 0 0 0 0 0 0 0 0 0 0 0 0 0 0 0 0 0 0 0 0 0 0 0 0 0 0 0 0 0
0 0 0 0 0 0 0 0 0 0 0 0 0 0 0 0 0 0 0 0 0 0 0 0 0 0 0 0 0 0 0 0 0 0 0 0 0 0 0 0 0 0 0
0 0 0 0 0 0 0 0 0 0 0 0 0 0 0 0 0 0 0 0 0 0 0 0 0 0 0 0 0 0 0 0 0 0 0 0 0 0 0 0 0 0 -0
0 0 0 0 0 0 0 0 0 0 0 0 0 0 0 0 0 0 0 0 0 0 0 0 0 0 0 0 0 0 0 0 0 0 0 0 0 0 0 0 0 -0 -0
0 0 0 0 0 0 0 0 0 0 0 0 0 0 0 0 0 0 0 0 0 0 0 0 0 0 0 0 0 0 0 0 0 0 0 0 0 0 0 0 0 0 -0
0 0 0 0 0 0 0 0 0 0 0 0 0 0 0 0 0 0 0 0 0 0 0 0 0 0 0 0 0 0 0 0 0 0 0 0 0 0 0 0 0 0 0
0 0 0 0 0 0 0 0 0 0 0 0 0 0 0 0 0 0 0 0 0 0 0 0 0 0 0 0 0 0 0 0 0 0 0 0 0 0 0 0 0 0 0
0 0 0 0 0 0 0 0 0 0 0 0 0 0 0 0 0 0 0 0 0 0 0 0 0 0 0 0 0 0 0 0 0 0 0 0 0 0 0 0 0 0 0
0 0 0 0 0 0 0 0 0 0 0 0 0 0 0 0 0 0 0 0 0 0 0 0 0 0 0 0 0 0 0 0 0 0 0 0 0 0 0 0 0 0 0
0 0 0 0 0 0 0 0 0 0 0 0 0 0 0 0 0 0 0 0 0 0 0 0 0 0 0 0 0 0 0 0 0 0 0 0 0 0 0 0 0 0 0
0 0 0 0 0 0 0 0 0 0 0 0 0 0 0 0 0 0 0 0 0 0 0 0 0 0 0 0 0 0 0 0 0 0 0 0 0 0 0 0 0 0 0
0 0 0 0 0 0 0 0 0 0 0 0 0 0 0 0 0 0 0 0 0 0 0 0 0 0 0 0 0 0 0 0 0 0 0 0 0 0 0 0 0 0 0
0 0 0 0 0 0 0 0 0 0 0 0 0 0 0 0 0 0 0 0 0 0 0 0 0 0 0 0 0 0 0 0 0 0 0 0 0 0 0 0 0 0 0
0 0 0 0 0 0 0 0 0 0 0 0 0 0 0 0 0 0 0 0 0 0 0 0 0 0 0 0 0 0 0 0 0 0 0 0 0 0 0 0 0 0 0
0 0 0 0 0 0 0 0 0 0 0 0 0 0 0 0 0 0 0 0 0 0 0 0 0 0 0 0 0 0 0 0 0 0 0 0 0 0 0 0 0 0 0
0 0 0 0 0 0 0 0 0 0 0 0 0 0 0 0 0 0 0 0 0 0 0 0 0 0 0 0 0 0 0 0 0 0 0 0 0 0 0 0 0 0 0
0 0 0 0 0 0 0 0 0 0 0 0 0 0 0 0 0 0 0 0 0 0 0 0 0 0 0 0 0 0 0 0 0 0 0 0 0 0 0 0 0 0 0
0 0 0 0 0 0 0 0 0 0 0 0 0 0 0 0 0 0 0 0 0 0 0 0 0 0 0 0 0 0 0 0 0 0 0 0 0 0 0 0 0 0 0
0 0 0 0 0 0 0 0 0 0 0 0 0 0 0 0 0 0 0 0 0 0 0 0 0 0 0 0 0 0 0 0 0 0 0 0 0 0 0 0 0 0 0
0 0 0 0 0 0 0 0 0 0 0 0 0 0 0 0 0 0 0 0 0 0 0 0 0 0 0 0 0 0 0 0 0 0 0 0 0 0 0 0 0 0 0
0 0 0 0 0 0 0 0 0 0 0 0 0 0 0 0 0 0 0 0 0 0 0 0 0 0 0 0 0 0 0 0 0 0 0 0 0 0 0 0 0 0 0
0 0 0 0 0 0 0 0 0 0 0 0 0 0 0 0 0 0 0 0 0 0 0 0 0 0 0 0 0 0 0 0 0 0 0 0 0 0 0 0 0 0 0
0 0 0 0 0 0 0 0 0 0 0 0 0 0 0 0 0 0 0 0 0 0 0 0 0 0 0 0 0 0 0 0 0 0 0 0 0 0 0 0 0 0 0
0 0 0 0 0 0 0 0 0 0 0 0 0 0 0 0 0 0 0 0 0 0 0 0 0 0 0 0 0 0 0 0 0 0 0 0 0 0 0 0 0 0 0
0 0 0 0 0 0 0 0 0 0 0 0 0 0 0 0 0 0 0 0 0 0 0 0 0 0 0 0 0 0 0 0 0 0 0 0 0 0 0 0 0 0 0
Wind_Speed_500mb
36 52 54 56 59 58 44 26 13 11 12 22 32 29 30 33 29 24 21 21 19 21 23 25 26 25 28 33 37 41 43 47 56 62 61 64 62 62 63 62 62 62 61
41 56 60 65 56 27 18 29 19 12 22 19 20 15 18 24 22 18 18 18 18 18 22 24 27 31 36 40 44 47 49 49 57 68 66 64 64 65 65 64 63 62 63
68 78 70 60 38 37 41 31 29 28 27 26 19 21 23 20 16 15 16 16 18 20 27 32 36 39 41 42 42 44 47 49 50 60 67 64 64 62 66 66 67 68 68
77 74 69 51 45 41 33 27 22 24 25 25 23 22 20 18 14 11 14 19 23 26 30 34 36 39 41 42 42 45 47 51 52 56 62 65 65 65 67 71 77 76 80
66 53 48 47 40 34 35 35 29 30 26 21 20 17 15 11 10 13 17 22 25 26 28 32 34 37 42 45 45 46 50 53 56 59 62 65 65 66 68 71 79 85 83
56 57 53 48 43 41 37 34 26 20 21 20 17 10 9 13 15 19 22 24 26 26 28 31 35 37 38 42 43 44 49 53 56 56 58 61 63 66 70 74 78 80 73
54 54 50 47 42 36 29 29 26 22 17 11 8 8 11 13 15 17 20 22 25 27 28 31 35 39 42 45 45 46 46 50 53 51 54 57 65 66 67 71 69 72 73
47 47 46 43 40 34 29 24 21 14 10 6 6 9 9 10 14 17 21 23 26 28 32 34 36 39 45 48 50 49 48 46 47 49 54 59 57 58 60 63 67 71 74
40 40 37 34 32 29 27 19 14 11 8 7 6 4 6 10 16 19 23 26 28 31 33 35 37 40 44 50 53 53 50 47 49 53 58 61 62 64 60 60 63 66 68
44 39 35 31 27 24 19 15 13 10 9 6 3 6 11 14 17 21 25 27 29 30 34 35 36 38 41 46 51 53 57 58 61 60 57 56 57 58 56 51 54 58 62
36 33 30 28 23 19 14 11 11 11 8 5 3 5 7 12 17 20 23 27 28 30 33 36 40 44 48 51 54 55 56 62 60 57 56 56 56 55 54 57 59 59 65
33 31 26 18 14 13 15 18 18 15 11 5 1 5 9 13 18 22 27 29 29 31 35 38 41 47 52 53 53 53 54 53 52 52 54 52 51 58 60 58 58 58 57
26 22 20 20 20 23 25 24 21 14 9 9 11 13 14 17 21 25 28 29 33 36 39 41 46 49 49 47 47 47 49 51 52 54 50 52 59 60 63 61 60 56 54
20 19 20 22 24 24 25 22 16 13 14 16 19 20 22 21 24 27 29 33 37 39 43 47 49 48 47 46 47 47 48 49 51 52 55 61 62 63 63 63 65 64 58
23 25 26 26 26 24 20 17 22 25 25 22 25 25 23 25 27 28 29 32 39 44 47 49 49 50 49 47 47 47 49 52 55 56 60 62 63 65 67 67 66 61 61
27 28 28 27 26 26 29 33 33 34 31 30 30 28 29 30 27 28 34 40 44 48 49 49 48 47 46 48 49 51 51 53 54 57 58 60 63 65 67 67 65 60 67
25 26 29 32 34 37 39 41 41 40 37 36 36 33 35 31 29 35 40 44 47 47 45 44 44 45 46 48 50 52 54 54 56 57 58 59 60 63 66 69 67 66 70
31 34 37 40 43 46 46 46 46 43 41 39 37 38 36 33 35 39 42 45 44 44 44 45 45 45 47 49 51 53 55 56 55 56 57 60 63 66 69 69 69 70 72
36 40 41 45 49 52 52 52 49 47 45 44 40 38 34 33 35 37 39 41 43 43 43 43 44 46 47 49 50 51 51 52 54 57 59 61 63 65 67 67 69 68 69
43 45 46 50 53 55 57 56 53 50 46 43 39 36 35 34 35 36 38 40 40 40 40 42 44 46 47 48 47 47 49 51 54 56 59 60 60 61 65 69 70 70 68
46 49 50 54 58 58 57 54 50 47 44 40 39 36 36 34 35 37 40 40 40 40 41 43 45 45 44 42 43 46 49 52 53 56 59 61 63 66 68 71 72 69 67
44 48 49 52 55 56 53 49 46 43 41 39 37 35 35 34 34 36 37 37 38 41 43 45 42 39 38 39 42 45 47 49 52 56 60 64 66 68 71 74 73 68 64
49 52 53 53 53 53 51 48 45 42 40 37 33 31 30 32 33 34 35 36 38 40 40 38 36 35 36 38 40 43 49 52 54 56 62 67 68 69 71 71 69 67 62
49 51 52 52 52 50 48 45 42 39 36 33 31 30 31 31 32 33 35 37 37 34 32 33 34 37 39 40 42 45 49 52 53 54 57 64 63 64 68 70 70 66 64
43 44 46 47 46 45 43 40 38 34 32 30 28 29 29 29 31 34 35 32 29 28 28 30 34 39 41 43 42 43 47 51 51 51 56 58 58 66 73 74 71 69 66
43 43 43 42 40 38 36 34 33 31 28 26 26 25 26 28 29 27 23 22 23 26 30 33 36 39 40 43 44 50 55 54 54 55 58 63 71 75 76 82 82 75 71
Wind_Direction_500mb
221 217 212 203 199 184 170 160 126 214 222 243 244 245 253 262 261 254 240 252 270 281 285 283 288 297 303 306 307 307 307 304 300 303 306 311 312 313 313 312 310 308 307
203 199 185 178 170 174 165 170 147 173 212 232 252 240 234 228 221 230 246 251 258 274 292 302 308 309 309 311 310 309 304 302 302 303 307 310 311 315 315 315 315 313 313
179 176 175 179 186 182 178 176 169 172 188 201 206 207 204 214 219 238 255 276 287 296 301 306 308 307 305 304 303 302 300 302 302 303 309 312 314 317 316 315 315 316 316
175 174 172 178 174 182 164 168 182 171 182 180 185 204 211 217 235 255 281 291 298 304 306 305 304 304 303 304 307 309 309 310 310 310 310 313 316 320 316 318 317 320 320
167 168 165 162 161 158 159 159 170 174 169 185 189 208 230 247 272 297 300 303 303 305 305 306 309 310 311 312 315 315 314 312 312 313 311 313 317 320 321 318 316 320 322
160 158 157 155 148 153 158 158 156 173 182 193 198 221 271 285 300 303 307 310 312 316 316 314 312 312 313 312 311 312 313 314 313 312 313 315 316 317 316 319 322 324 326
153 151 148 151 155 162 171 178 177 188 188 196 236 265 278 291 305 312 314 317 319 322 321 320 320 320 319 318 317 317 316 314 313 314 314 315 316 318 317 319 319 316 312
157 159 156 155 156 161 161 172 175 184 191 219 271 280 287 313 328 334 341 341 336 333 330 327 324 322 320 319 318 318 316 315 313 314 314 315 317 318 314 313 312 311 310
147 148 151 153 157 158 168 173 175 195 208 230 240 272 348 2 0 357 349 342 336 332 328 324 324 323 319 319 319 316 315 314 313 317 318 316 316 314 314 313 316 316 317
158 154 156 161 161 163 173 183 197 203 191 151 97 29 12 2 353 347 341 335 336 331 327 322 321 317 320 319 320 323 323 320 318 313 310 310 312 313 313 315 317 316 315
159 159 166 172 174 176 177 187 184 176 159 131 76 14 351 338 333 332 329 329 331 330 326 328 328 326 327 326 324 321 316 317 319 317 318 319 318 317 321 321 320 317 314
167 172 175 176 183 190 192 187 181 177 171 158 212 289 306 314 313 321 325 329 333 333 334 334 330 327 324 319 316 316 316 320 320 322 326 327 325 323 324 324 321 318 312
178 181 184 191 195 194 191 187 185 183 186 217 245 270 288 297 307 314 323 330 336 334 334 330 326 321 317 317 318 321 324 324 325 327 330 325 326 328 328 329 326 322 316
191 198 200 203 206 204 201 198 199 212 233 252 269 279 288 300 308 316 325 329 329 329 328 323 321 320 323 326 328 328 328 328 329 330 327 327 328 328 329 330 329 329 324
217 221 222 221 218 216 216 222 231 238 247 257 269 275 284 297 300 308 318 323 323 318 317 320 325 329 331 331 331 330 330 330 330 330 329 328 328 329 329 330 330 328 322
235 239 240 239 238 235 232 234 240 248 252 260 267 276 280 284 295 310 315 312 310 315 322 327 329 330 329 329 329 329 330 330 329 328 328 329 327 326 326 327 329 326 324
252 251 246 240 238 238 240 245 249 253 259 265 270 273 277 292 299 300 302 307 311 318 325 326 326 326 327 328 328 328 328 328 328 328 326 326 326 327 328 328 328 325 324
250 246 245 243 243 245 248 251 254 257 260 263 271 271 281 287 290 295 301 308 316 322 324 324 325 327 328 327 326 326 327 327 326 326 328 330 331 330 329 328 327 325 324
258 252 251 250 249 249 251 252 255 257 260 264 266 270 277 282 288 295 302 309 315 319 321 324 326 327 326 325 324 324 325 328 331 332 333 331 331 329 327 325 324 324 324
258 249 248 249 250 251 253 256 258 259 262 266 270 273 275 278 285 294 302 308 312 315 319 320 321 322 322 322 324 327 331 334 334 333 332 332 332 331 328 326 325 323 322
247 246 248 251 252 253 255 257 260 262 263 264 265 265 268 275 283 293 302 309 313 317 319 321 322 320 321 325 330 333 333 331 332 332 331 331 330 328 329 328 325 323 320
254 256 257 258 257 257 259 261 261 261 261 261 263 263 268 274 288 300 306 310 316 319 318 317 319 324 328 330 330 329 328 330 331 331 330 330 330 329 328 327 326 323 320
263 264 264 262 260 259 259 259 259 259 259 259 257 259 268 285 295 299 305 310 312 313 315 318 323 326 325 323 323 324 323 325 324 326 326 325 325 327 328 324 323 322 322
269 268 265 262 258 255 253 252 251 251 251 250 252 261 280 288 294 300 304 307 309 313 317 322 324 323 321 318 316 316 317 320 319 320 325 328 327 325 325 325 326 327 323
268 264 261 258 254 249 247 245 245 243 240 241 255 273 282 290 297 302 307 311 317 323 326 325 323 321 319 319 318 313 314 317 312 310 315 321 330 333 330 323 324 322 319
269 264 260 255 251 248 244 241 237 234 235 249 264 273 283 291 298 304 312 322 330 332 332 330 328 325 322 321 320 322 319 313 313 311 314 320 325 325 327 328 322 310 308
Wind_Speed_850mb
36 52 54 56 59 58 44 26 13 11 12 22 32 29 30 33 29 24 21 21 19 21 23 25 26 25 28 33 37 41 43 47 56 62 61 64 62 62 63 62 62 62 61
41 56 60 65 56 27 18 29 19 12 22 19 20 15 18 24 22 18 18 18 18 18 22 24 27 31 36 40 44 47 49 49 57 68 66 64 64 65 65 64 63 62 63
68 78 70 60 38 37 41 31 29 28 27 26 19 21 23 20 16 15 16 16 18 20 27 32 36 39 41 42 42 44 47 49 50 60 67 64 64 62 66 66 67 68 68
77 74 69 51 45 41 33 27 22 24 25 25 23 22 20 18 14 11 14 19 23 26 30 34 36 39 41 42 42 45 47 51 52 56 62 65 65 65 67 71 77 76 80
66 53 48 47 40 34 35 35 29 30 26 21 20 17 15 11 10 13 17 22 25 26 28 32 34 37 42 45 45 46 50 53 56 59 62 65 65 66 68 71 79 85 83
56 57 53 48 43 41 37 34 26 20 21 20 17 10 9 13 15 19 22 24 26 26 28 31 35 37 38 42 43 44 49 53 56 56 58 61 63 66 70 74 78 80 73
54 54 50 47 42 36 29 29 26 22 17 11 8 8 11 13 15 17 20 22 25 27 28 31 35 39 42 45 45 46 46 50 53 51 54 57 65 66 67 71 69 72 73
47 47 46 43 40 34 29 24 21 14 10 6 6 9 9 10 14 17 21 23 26 28 32 34 36 39 45 48 50 49 48 46 47 49 54 59 57 58 60 63 67 71 74
40 40 37 34 32 29 27 19 14 11 8 7 6 4 6 10 16 19 23 26 28 31 33 35 37 40 44 50 53 53 50 47 49 53 58 61 62 64 60 60 63 66 68
44 39 35 31 27 24 19 15 13 10 9 6 3 6 11 14 17 21 25 27 29 30 34 35 36 38 41 46 51 53 57 58 61 60 57 56 57 58 56 51 54 58 62
36 33 30 28 23 19 14 11 11 11 8 5 3 5 7 12 17 20 23 27 28 30 33 36 40 44 48 51 54 55 56 62 60 57 56 56 56 55 54 57 59 59 65
33 31 26 18 14 13 15 18 18 15 11 5 1 5 9 13 18 22 27 29 29 31 35 38 41 47 52 53 53 53 54 53 52 52 54 52 51 58 60 58 58 58 57
26 22 20 20 20 23 25 24 21 14 9 9 11 13 14 17 21 25 28 29 33 36 39 41 46 49 49 47 47 47 49 51 52 54 50 52 59 60 63 61 60 56 54
20 19 20 22 24 24 25 22 16 13 14 16 19 20 22 21 24 27 29 33 37 39 43 47 49 48 47 46 47 47 48 49 51 52 55 61 62 63 63 63 65 64 58
23 25 26 26 26 24 20 17 22 25 25 22 25 25 23 25 27 28 29 32 39 44 47 49 49 50 49 47 47 47 49 52 55 56 60 62 63 65 67 67 66 61 61
27 28 28 27 26 26 29 33 33 34 31 30 30 28 29 30 27 28 34 40 44 48 49 49 48 47 46 48 49 51 51 53 54 57 58 60 63 65 67 67 65 60 67
25 26 29 32 34 37 39 41 41 40 37 36 36 33 35 31 29 35 40 44 47 47 45 44 44 45 46 48 50 52 54 54 56 57 58 59 60 63 66 69 67 66 70
31 34 37 40 43 46 46 46 46 43 41 39 37 38 36 33 35 39 42 45 44 44 44 45 45 45 47 49 51 53 55 56 55 56 57 60 63 66 69 69 69 70 72
36 40 41 45 49 52 52 52 49 47 45 44 40 38 34 33 35 37 39 41 43 43 43 43 44 46 47 49 50 51 51 52 54 57 59 61 63 65 67 67 69 68 69
43 45 46 50 53 55 57 56 53 50 46 43 39 36 35 34 35 36 38 40 40 40 40 42 44 46 47 48 47 47 49 51 54 56 59 60 60 61 65 69 70 70 68
46 49 50 54 58 58 57 54 50 47 44 40 39 36 36 34 35 37 40 40 40 40 41 43 45 45 44 42 43 46 49 52 53 56 59 61 63 66 68 71 72 69 67
44 48 49 52 55 56 53 49 46 43 41 39 37 35 35 34 34 36 37 37 38 41 43 45 42 39 38 39 42 45 47 49 52 56 60 64 66 68 71 74 73 68 64
49 52 53 53 53 53 51 48 45 42 40 37 33 31 30 32 33 34 35 36 38 40 40 38 36 35 36 38 40 43 49 52 54 56 62 67 68 69 71 71 69 67 62
49 51 52 52 52 50 48 45 42 39 36 33 31 30 31 31 32 33 35 37 37 34 32 33 34 37 39 40 42 45 49 52 53 54 57 64 63 64 68 70 70 66 64
43 44 46 47 46 45 43 40 38 34 32 30 28 29 29 29 31 34 35 32 29 28 28 30 34 39 41 43 42 43 47 51 51 51 56 58 58 66 73 74 71 69 66
43 43 43 42 40 38 36 34 33 31 28 26 26 25 26 28 29 27 23 22 23 26 30 33 36 39 40 43 44 50 55 54 54 55 58 63 71 75 76 82 82 75 71
Wind_Direction_850mb
221 217 212 203 199 184 170 160 126 214 222 243 244 245 253 262 261 254 240 252 270 281 285 283 288 297 303 306 307 307 307 304 300 303 306 311 312 313 313 312 310 308 307
203 199 185 178 170 174 165 170 147 173 212 232 252 240 234 228 221 230 246 251 258 274 292 302 308 309 309 311 310 309 304 302 302 303 307 310 311 315 315 315 315 313 313
179 176 175 179 186 182 178 176 169 172 188 201 206 207 204 214 219 238 255 276 287 296 301 306 308 307 305 304 303 302 300 302 302 303 309 312 314 317 316 315 315 316 316
175 174 172 178 174 182 164 168 182 171 182 180 185 204 211 217 235 255 281 291 298 304 306 305 304 304 303 304 307 309 309 310 310 310 310 313 316 320 316 318 317 320 320
167 168 165 162 161 158 159 159 170 174 169 185 189 208 230 247 272 297 300 303 303 305 305 306 309 310 311 312 315 315 314 312 312 313 311 313 317 320 321 318 316 320 322
160 158 157 155 148 153 158 158 156 173 182 193 198 221 271 285 300 303 307 310 312 316 316 314 312 312 313 312 311 312 313 314 313 312 313 315 316 317 316 319 322 324 326
153 151 148 151 155 162 171 178 177 188 188 196 236 265 278 291 305 312 314 317 319 322 321 320 320 320 319 318 317 317 316 314 313 314 314 315 316 318 317 319 319 316 312
157 159 156 155 156 161 161 172 175 184 191 219 271 280 287 313 328 334 341 341 336 333 330 327 324 322 320 319 318 318 316 315 313 314 314 315 317 318 314 313 312 311 310
147 148 151 153 157 158 168 173 175 195 208 230 240 272 348 2 0 357 349 342 336 332 328 324 324 323 319 319 319 316 315 314 313 317 318 316 316 314 314 313 316 316 317
158 154 156 161 161 163 173 183 197 203 191 151 97 29 12 2 353 347 341 335 336 331 327 322 321 317 320 319 320 323 323 320 318 313 310 310 312 313 313 315 317 316 315
159 159 166 172 174 176 177 187 184 176 159 131 76 14 351 338 333 332 329 329 331 330 326 328 328 326 327 326 324 321 316 317 319 317 318 319 318 317 321 321 320 317 314
167 172 175 176 183 190 192 187 181 177 171 158 212 289 306 314 313 321 325 329 333 333 334 334 330 327 324 319 316 316 316 320 320 322 326 327 325 323 324 324 321 318 312
178 181 184 191 195 194 191 187 185 183 186 217 245 270 288 297 307 314 323 330 336 334 334 330 326 321 317 317 318 321 324 324 325 327 330 325 326 328 328 329 326 322 316
191 198 200 203 206 204 201 198 199 212 233 252 269 279 288 300 308 316 325 329 329 329 328 323 321 320 323 326 328 328 328 328 329 330 327 327 328 328 329 330 329 329 324
217 221 222 221 218 216 216 222 231 238 247 257 269 275 284 297 300 308 318 323 323 318 317 320 325 329 331 331 331 330 330 330 330 330 329 328 328 329 329 330 330 328 322
235 239 240 239 238 235 232 234 240 248 252 260 267 276 280 284 295 310 315 312 310 315 322 327 329 330 329 329 329 329 330 330 329 328 328 329 327 326 326 327 329 326 324
252 251 246 240 238 238 240 245 249 253 259 265 270 273 277 292 299 300 302 307 311 318 325 326 326 326 327 328 328 328 328 328 328 328 326 326 326 327 328 328 328 325 324
250 246 245 243 243 245 248 251 254 257 260 263 271 271 281 287 290 295 301 308 316 322 324 324 325 327 328 327 326 326 327 327 326 326 328 330 331 330 329 328 327 325 324
258 252 251 250 249 249 251 252 255 257 260 264 266 270 277 282 288 295 302 309 315 319 321 324 326 327 326 325 324 324 325 328 331 332 333 331 331 329 327 325 324 324 324
258 249 248 249 250 251 253 256 258 259 262 266 270 273 275 278 285 294 302 308 312 315 319 320 321 322 322 322 324 327 331 334 334 333 332 332 332 331 328 326 325 323 322
247 246 248 251 252 253 255 257 260 262 263 264 265 265 268 275 283 293 302 309 313 317 319 321 322 320 321 325 330 333 333 331 332 332 331 331 330 328 329 328 325 323 320
254 256 257 258 257 257 259 261 261 261 261 261 263 263 268 274 288 300 306 310 316 319 318 317 319 324 328 330 330 329 328 330 331 331 330 330 330 329 328 327 326 323 320
263 264 264 262 260 259 259 259 259 259 259 259 257 259 268 285 295 299 305 310 312 313 315 318 323 326 325 323 323 324 323 325 324 326 326 325 325 327 328 324 323 322 322
269 268 265 262 258 255 253 252 251 251 251 250 252 261 280 288 294 300 304 307 309 313 317 322 324 323 321 318 316 316 317 320 319 320 325 328 327 325 325 325 326 327 323
268 264 261 258 254 249 247 245 245 243 240 241 255 273 282 290 297 302 307 311 317 323 326 325 323 321 319 319 318 313 314 317 312 310 315 321 330 333 330 323 324 322 319
269 264 260 255 251 248 244 241 237 234 235 249 264 273 283 291 298 304 312 322 330 332 332 330 328 325 322 321 320 322 319 313 313 311 314 320 325 325 327 328 322 310 308